W5MAI Weather Reports


Display with metric or nautical units.
time (UTC)temp
F
wind
direction
speed
MPH
gust
MPH
rain 1hr
in
rain 24hr
in
rain mn
in
humidity
%
barometer
mb
20260903141354 82 220 5.0 10.0 0.00 0.00 0.00 80 1016.2
20260903140332 82 267 4.0 8.0 0.00 0.00 0.00 80 1016.2
20260903135357 81 219 5.0 9.0 0.00 0.00 0.00 81 1016.2
20260903134418 81 225 3.0 9.0 0.00 0.00 0.00 82 1016.3
20260903133344 80 176 5.0 9.0 0.00 0.00 0.00 82 1016.4
20260903132404 80 219 3.0 7.0 0.00 0.00 0.00 83 1016.3
20260903131323 80 200 1.0 7.0 0.00 0.00 0.00 83 1016.4
20260903125345 80 166 3.0 8.0 0.00 0.00 0.00 84 1016.1
20260903124411 79 167 2.0 8.0 0.00 0.00 0.00 84 1016.0
20260903123341 79 166 2.0 6.0 0.00 0.00 0.00 85 1016.0
20260903122401 79 152 1.0 6.0 0.00 0.00 0.00 85 1015.8
20260903121323 79 196 2.0 4.0 0.00 0.00 0.00 85 1015.7
20260903115350 79 157 0.0 2.0 0.00 0.00 0.00 86 1015.8
20260903114414 79 157 1.0 3.0 0.00 0.00 0.00 86 1015.7
20260903113328 79 197 1.0 3.0 0.00 0.00 0.00 86 1015.6
20260903112347 79 197 3.0 8.0 0.00 0.00 0.00 86 1015.6
20260903111417 79 214 1.0 7.0 0.00 0.00 0.00 86 1015.4
20260903110335 79 267 2.0 9.0 0.00 0.00 0.00 85 1015.2
20260903105401 79 185 4.0 10.0 0.00 0.00 0.00 86 1015.2
20260903104325 79 188 4.0 9.0 0.00 0.00 0.00 86 1015.1
20260903103343 79 215 3.0 9.0 0.00 0.00 0.00 86 1015.2
20260903102349 79 172 3.0 8.0 0.00 0.00 0.00 86 1015.1
20260903101356 79 223 2.0 8.0 0.00 0.00 0.00 87 1015.1
20260903100323 79 167 1.0 7.0 0.00 0.00 0.00 87 1015.3
20260903095500 79 148 2.0 8.0 0.00 0.00 0.00 87 1015.2
20260903094334 79 161 1.0 5.0 0.00 0.00 0.00 87 1015.2
20260903093414 79 180 2.0 6.0 0.00 0.00 0.00 86 1015.3
20260903092342 79 169 2.0 4.0 0.00 0.00 0.00 86 1015.3
20260903091408 79 125 0.0 0.0 0.00 0.00 0.00 86 1015.4
20260903090331 79 125 1.0 4.0 0.00 0.00 0.00 86 1015.4
20260903085352 79 184 1.0 5.0 0.00 0.00 0.00 86 1015.3
20260903084421 79 161 2.0 5.0 0.00 0.00 0.00 85 1015.3
20260903083339 79 159 2.0 7.0 0.00 0.00 0.00 85 1015.5
20260903082409 79 175 2.0 6.0 0.00 0.00 0.00 84 1015.4
20260903081418 80 184 2.0 7.0 0.00 0.00 0.00 84 1015.4
20260903080347 80 182 3.0 5.0 0.00 0.00 0.00 83 1015.4
20260903075356 80 170 4.0 6.0 0.00 0.00 0.00 83 1015.5
20260903074324 80 164 2.0 5.0 0.00 0.00 0.00 82 1015.5
20260903070349 81 144 4.0 11.0 0.00 0.00 0.00 80 1015.6
20260903065340 81 154 1.0 7.0 0.00 0.00 0.00 79 1015.8
20260903064323 81 121 1.0 6.0 0.00 0.00 0.00 79 1015.9
20260903063337 82 157 3.0 9.0 0.00 0.00 0.00 78 1015.5
20260903062341 82 160 3.0 9.0 0.00 0.00 0.00 78 1015.6
20260903061326 82 134 2.0 8.0 0.00 0.00 0.00 77 1015.8
20260903060340 82 180 4.0 11.0 0.00 0.00 0.00 77 1015.5
20260903055324 83 168 4.0 10.0 0.00 0.00 0.00 76 1015.6
20260903054330 83 212 4.0 11.0 0.00 0.00 0.00 75 1015.8
20260903053345 84 150 5.0 12.0 0.00 0.00 0.00 73 1015.7
20260903052330 84 161 6.0 14.0 0.00 0.00 0.00 72 1015.5
20260903051331 84 178 6.0 11.0 0.00 0.00 0.00 71 1015.4
20260903050344 85 181 7.0 12.0 0.00 0.00 0.00 70 1015.3
20260903045410 85 169 5.0 10.0 0.00 0.00 0.00 69 1015.1
20260903044326 86 138 5.0 10.0 0.00 0.00 0.00 68 1015.0
20260903043357 86 159 5.0 10.0 0.00 0.00 0.00 67 1015.0
20260903042419 86 148 6.0 10.0 0.00 0.00 0.00 67 1014.9
20260903041330 87 176 8.0 12.0 0.00 0.00 0.00 66 1014.9
20260903040348 87 151 8.0 11.0 0.00 0.00 0.00 64 1014.9
20260903035403 87 139 5.0 9.0 0.00 0.00 0.00 61 1014.9
20260903034323 88 167 4.0 12.0 0.00 0.00 0.00 60 1014.9
20260903033352 88 180 5.0 12.0 0.00 0.00 0.00 59 1014.8
20260903032401 86 159 5.0 13.0 0.00 0.00 0.00 58 1014.7
20260903031405 83 137 0.0 0.0 0.00 0.00 0.00 64 1014.2
20260903030333 83 137 0.0 0.0 0.00 0.00 0.00 64 1014.1
20260903025340 83 137 0.0 1.0 0.00 0.00 0.00 64 1014.0
20260903024400 84 137 0.0 0.0 0.00 0.00 0.00 64 1013.8
20260903023417 84 137 0.0 0.0 0.00 0.00 0.00 62 1013.7
20260903022343 85 137 0.0 0.0 0.00 0.00 0.00 62 1013.6
20260903021404 85 137 0.0 0.0 0.00 0.00 0.00 63 1013.4
20260903020326 86 137 0.0 0.0 0.00 0.00 0.00 61 1013.3
20260903015350 87 137 0.0 0.0 0.00 0.00 0.00 59 1013.2
20260903014421 88 137 0.0 0.0 0.00 0.00 0.00 58 1013.1
20260903013334 89 137 0.0 0.0 0.00 0.00 0.00 54 1013.1
20260903012329 90 137 0.0 0.0 0.00 0.00 0.00 53 1013.0
20260903011338 91 137 0.0 0.0 0.00 0.00 0.00 52 1012.9
20260903010357 92 137 0.0 1.0 0.00 0.00 0.00 48 1012.9
20260903005327 94 137 0.0 0.0 0.00 0.00 0.00 46 1012.9
20260903004348 95 137 0.0 2.0 0.00 0.00 0.00 43 1013.0
20260903003417 95 137 1.0 4.0 0.00 0.00 0.00 40 1012.9
20260903002341 96 161 2.0 6.0 0.00 0.00 0.00 39 1012.9
20260903001405 97 156 2.0 5.0 0.00 0.00 0.00 39 1012.9
20260903000327 97 148 3.0 8.0 0.00 0.00 0.00 39 1013.0
20260902235347 98 164 1.0 7.0 0.00 0.00 0.00 38 1013.0
20260902234417 98 213 3.0 7.0 0.00 0.00 0.00 38 1013.1
20260902233336 98 175 2.0 6.0 0.00 0.00 0.00 38 1013.0
20260902232412 98 175 3.0 7.0 0.00 0.00 0.00 38 1013.2
20260902231345 99 164 2.0 5.0 0.00 0.00 0.00 36 1013.1
20260902230405 99 227 2.0 7.0 0.00 0.00 0.00 37 1013.0
20260902225334 99 242 2.0 6.0 0.00 0.00 0.00 36 1012.9
20260902224354 100 255 2.0 6.0 0.00 0.00 0.00 36 1013.1
20260902223323 99 259 2.0 7.0 0.00 0.00 0.00 37 1013.0
20260902220345 99 304 1.0 8.0 0.00 0.00 0.00 37 1013.3
20260902215415 99 221 4.0 9.0 0.00 0.00 0.00 37 1013.3
20260902214328 99 243 2.0 9.0 0.00 0.00 0.00 38 1013.4
20260902213358 99 194 2.0 8.0 0.00 0.00 0.00 39 1013.5
20260902212419 99 222 3.0 8.0 0.00 0.00 0.00 39 1013.5
20260902210327 98 232 4.0 8.0 0.00 0.00 0.00 39 1013.8
20260902205342 98 207 4.0 11.0 0.00 0.00 0.00 39 1013.9
20260902204416 98 236 4.0 9.0 0.00 0.00 0.00 39 1014.1
20260902203344 98 204 5.0 13.0 0.00 0.00 0.00 41 1014.2
20260902202407 97 123 2.0 7.0 0.00 0.00 0.00 42 1014.3
20260902201330 97 103 4.0 9.0 0.00 0.00 0.00 41 1014.5
20260902200357 98 236 1.0 7.0 0.00 0.00 0.00 42 1014.8
20260902195422 98 167 4.0 14.0 0.00 0.00 0.00 43 1014.9
20260902193330 96 304 2.0 12.0 0.00 0.00 0.00 43 1015.4
20260902192328 97 157 4.0 11.0 0.00 0.00 0.00 44 1015.4
20260902191358 97 153 2.0 9.0 0.00 0.00 0.00 46 1015.6
20260902190324 97 198 4.0 8.0 0.00 0.00 0.00 43 1015.8
20260902185353 96 149 5.0 10.0 0.00 0.00 0.00 44 1016.0
20260902184326 96 265 3.0 9.0 0.00 0.00 0.00 45 1016.1
20260902183352 96 197 4.0 10.0 0.00 0.00 0.00 45 1016.4
20260902182325 96 131 3.0 8.0 0.00 0.00 0.00 46 1016.4
20260902180401 95 209 4.0 11.0 0.00 0.00 0.00 48 1016.8
20260902175329 94 176 3.0 11.0 0.00 0.00 0.00 50 1017.0
20260902174354 94 131 4.0 9.0 0.00 0.00 0.00 50 1017.0
20260902173325 93 71 3.0 10.0 0.00 0.00 0.00 50 1017.3
20260902171337 93 181 4.0 7.0 0.00 0.00 0.00 53 1017.6
20260902170344 93 248 2.0 9.0 0.00 0.00 0.00 54 1017.6
20260902165414 92 167 1.0 7.0 0.00 0.00 0.00 55 1017.7
20260902164334 92 219 3.0 8.0 0.00 0.00 0.00 54 1017.8
20260902163405 91 304 1.0 7.0 0.00 0.00 0.00 57 1017.8
20260902162405 90 107 4.0 8.0 0.00 0.00 0.00 59 1017.9
20260902161420 89 192 2.0 8.0 0.00 0.00 0.00 62 1017.9
20260902160324 89 232 2.0 10.0 0.00 0.00 0.00 62 1018.0
20260902155359 88 158 2.0 9.0 0.00 0.00 0.00 63 1018.0
20260902154420 88 173 3.0 10.0 0.00 0.00 0.00 64 1017.9
20260902152343 86 230 3.0 6.0 0.00 0.00 0.00 69 1017.9
20260902151416 85 201 3.0 8.0 0.00 0.00 0.00 72 1017.9
20260902150422 85 232 4.0 7.0 0.00 0.00 0.00 73 1017.9
20260902145326 84 234 1.0 8.0 0.00 0.00 0.00 75 1018.1
20260902144337 83 219 2.0 8.0 0.00 0.00 0.00 77 1018.0
20260902143343 83 219 2.0 7.0 0.00 0.00 0.00 78 1018.0
20260902142412 82 190 2.0 6.0 0.00 0.00 0.00 81 1018.1